[[{"header":{"parameterUnit":"m.s-1","parameterCategory":1,"la1":30.2991,"la2":30.254,"lo1":-89.0895,"lo2":-89.0444,"dy":0.0017,"dx":0.0017,"nx":28,"ny":28,"refTime":"2024-03-25T03:00:00:Z","depth":0,"parameterNumber":2,"parameterNumberName":"U-component_of_WINDS"},"data":[0,0,0,0,0,0,0,0,0,0,0,0,0,0,0,0,0,0,0,0,0,0,0,0,0,0,0,0,0,0,0,0,0,0,0,0,0,0,0,0,0,0,0,0,0,0,0,0,0,0,0,0,0,0,0,0,0,0,-3.4589,-3.4589,0,-3.4577,-3.4577,-3.4577,-3.4527,-3.4526,-3.4525,-3.4524,-3.4512,-3.4513,-3.4513,0,0,0,0,0,0,0,0,0,0,0,0,0,-3.4569,-3.457,-3.4589,-3.4589,-3.4588,-3.4577,-3.4577,-3.4577,-3.4527,-3.4526,-3.4524,-3.4523,-3.4512,-3.4513,-3.4513,0,0,0,0,0,0,0,0,0,0,0,0,0,-3.457,-3.457,-3.4589,-3.4562,-3.456,-3.4577,-3.4577,-3.4577,-3.4528,-3.4526,-3.4524,-3.4522,-3.4511,-3.4512,-3.4514,-3.4556,0,0,-3.4517,-3.4518,0,0,0,0,0,0,0,0,-3.457,-3.4571,-3.4566,-3.4564,-3.4561,-3.4552,-3.4566,-3.457,-3.4528,-3.454,-3.4524,-3.4522,-3.4527,-3.4526,-3.4528,-3.4555,-3.4555,-3.4517,-3.4518,-3.4518,-3.4519,0,0,0,0,0,0,0,-3.457,-3.4571,-3.4584,-3.4566,-3.4563,-3.4552,-3.455,-3.4566,-3.4543,-3.4539,-3.4535,-3.4534,-3.4525,-3.4527,-3.4527,-3.4554,-3.4517,-3.4518,-3.4519,-3.4519,-3.4617,-3.4619,0,0,0,0,0,0,-3.4573,-3.4571,-3.4585,-3.4584,-3.4561,-3.4553,-3.4551,-3.4557,-3.4543,-3.4539,-3.4536,-3.4532,-3.4526,-3.4526,-3.4527,-3.4575,-3.4518,-3.4519,-3.452,-3.4615,-3.4617,-3.4619,0,0,0,0,0,0,-3.4573,-3.4575,-3.4585,-3.4576,-3.4577,-3.4556,-3.4562,-3.4557,-3.4559,-3.4541,-3.4536,-3.4542,-3.4525,-3.4525,-3.4549,-3.4574,-3.452,-3.4521,-3.4613,-3.4616,-3.4618,-3.4673,0,0,0,0,0,0,-3.4573,-3.4575,-3.459,-3.4577,-3.4578,-3.4607,-3.4564,-3.4558,-3.4562,-3.4556,-3.4545,-3.4542,-3.4523,-3.4548,-3.455,-3.4575,-3.4522,-3.461,-3.4614,-3.4617,-3.4669,-3.4677,-3.4684,0,0,0,0,0,-3.4572,-3.4606,-3.4591,-3.4593,-3.4596,-3.4609,-3.4609,-3.4587,-3.4564,-3.4579,-3.4568,-3.4542,-3.4572,-3.4551,-3.4553,-3.4578,-3.4609,-3.4613,-3.4617,-3.4665,-3.4675,-3.4684,0,0,0,0,0,0,-3.4622,-3.4603,-3.4587,-3.4617,-3.4615,-3.46,-3.4618,-3.4598,-3.4602,-3.4597,-3.457,-3.4568,-3.4596,-3.459,-3.4566,-3.4619,-3.4586,-3.4591,-3.4622,-3.4631,-3.4639,-3.4639,-3.4523,0,0,0,0,0,-3.4637,-3.4648,-3.4632,-3.466,-3.466,-3.464,-3.4644,-3.4628,-3.4624,-3.4623,-3.4613,-3.461,-3.4619,-3.4625,-3.4632,-3.4668,-3.4665,-3.4687,-3.4695,-3.4702,-3.4706,-3.4726,-3.4735,-3.4633,-3.4633,-3.4633,0,0,-3.4666,-3.4658,-3.4667,-3.467,-3.4666,-3.4679,-3.4639,-3.4654,-3.4664,-3.4625,-3.4647,-3.464,-3.4636,-3.4666,-3.4679,-3.4662,-3.4734,-3.4707,-3.4713,-3.4713,-3.4731,-3.4741,-3.4749,-3.4636,-3.4636,-3.4635,0,0,-3.4727,-3.4722,-3.4745,-3.4743,-3.4738,-3.4725,-3.4731,-3.472,-3.4714,-3.4735,-3.4707,-3.4719,-3.4734,-3.4732,-3.4733,-3.4797,-3.4774,-3.4801,-3.4841,-3.4861,-3.4869,-3.4876,-3.4898,-3.4907,-3.4805,-3.4805,-3.4805,0,-3.4765,-3.4783,-3.476,-3.4777,-3.478,-3.4747,-3.4771,-3.4769,-3.4767,-3.477,-3.4751,-3.4771,-3.4766,-3.4796,-3.4812,-3.4814,-3.482,-3.48,-3.4869,-3.4876,-3.4882,-3.4903,-3.4912,-3.4808,-3.4808,-3.4808,-3.4807,0,-3.4829,-3.4843,-3.4862,-3.4862,-3.4867,-3.4887,-3.4868,-3.4876,-3.4861,-3.485,-3.4873,-3.4866,-3.4872,-3.4878,-3.4862,-3.4907,-3.4896,-3.4874,-3.484,-3.4895,-3.4915,-3.4923,-3.4813,-3.4812,-3.4811,-3.481,0,0,-3.4918,-3.4907,-3.4914,-3.4914,-3.4907,-3.4917,-3.4938,-3.4943,-3.4951,-3.4952,-3.4968,-3.4983,-3.4963,-3.4964,-3.4949,-3.4966,-3.5017,-3.4941,-3.4941,-3.4955,-3.5066,-3.5082,-3.5092,-3.5003,-3.5005,-3.5006,-3.5066,0,-3.4976,-3.5009,-3.499,-3.5026,-3.5038,-3.5009,-3.5026,-3.5025,-3.5016,-3.5026,-3.5017,-3.5028,-3.5,-3.5001,-3.5017,-3.5008,-3.5039,-3.5003,-3.5018,-3.5018,-3.5018,-3.5102,-3.5118,-3.5176,-3.5074,-3.5075,-3.5076,0,-3.5047,-3.5051,-3.5088,-3.5081,-3.5085,-3.5101,-3.5106,-3.5116,-3.5114,-3.5107,-3.511,-3.5091,-3.5111,-3.5079,-3.5106,-3.5083,-3.5088,-3.5085,-3.5086,-3.5085,-3.5049,-3.5102,-3.5193,-3.5202,-3.5088,-3.5087,-3.5086,0,-3.5108,-3.5123,-3.5147,-3.5148,-3.514,-3.5152,-3.515,-3.5146,-3.5152,-3.5156,-3.5159,-3.5167,-3.517,-3.5176,-3.516,-3.5138,-3.519,-3.5156,-3.5184,-3.5185,-3.5195,-3.5194,-3.5287,-3.52,-3.52,-3.52,-3.52,0,-3.5173,-3.5197,-3.5174,-3.5189,-3.5216,-3.5195,-3.5222,-3.5216,-3.5214,-3.5227,-3.5203,-3.5216,-3.5194,-3.5206,-3.5194,-3.5218,-3.522,-3.5215,-3.5211,-3.5217,-3.5217,-3.5218,-3.5214,-3.5202,-3.5202,-3.5201,-3.5201,0,-3.5244,-3.523,-3.5255,-3.5246,-3.5245,-3.5264,-3.5257,-3.5271,-3.5262,-3.528,-3.5283,-3.5268,-3.5281,-3.5266,-3.5277,-3.5269,-3.5303,-3.5293,-3.5303,-3.53,-3.5328,-3.5326,-3.5424,-3.5436,-3.5343,-3.5344,-3.5345,0,-3.5286,-3.5304,-3.5298,-3.5305,-3.5304,-3.5317,-3.5322,-3.5304,-3.5311,-3.5312,-3.5326,-3.5337,-3.5344,-3.5366,-3.5356,-3.5365,-3.5356,-3.539,-3.5357,-3.5362,-3.5355,-3.5354,-3.5356,-3.5396,-3.5397,-3.5398,-3.5399,0,-3.5363,-3.5355,-3.5364,-3.5372,-3.5379,-3.5384,-3.5387,-3.5395,-3.5375,-3.5385,-3.5398,-3.5404,-3.5416,-3.5427,-3.5434,-3.5432,-3.5412,-3.541,-3.5416,-3.5421,-3.5426,-3.5423,-3.532,-3.5407,-3.5406,-3.5405,-3.5405,-3.5405,-3.542,-3.5435,-3.5433,-3.5444,-3.5445,-3.5449,-3.5462,-3.5455,-3.5465,-3.5474,-3.5462,-3.5479,-3.5478,-3.5486,-3.5486,-3.5499,-3.5484,-3.5494,-3.5497,-3.5499,-3.5503,-3.5425,-3.55,-3.55,-3.55,-3.55,-3.5499,0,-3.5495,-3.5493,-3.5503,-3.5508,-3.5518,-3.55,-3.5503,-3.5512,-3.5526,-3.5528,-3.5536,-3.5552,-3.5563,-3.5556,-3.5566,-3.5578,-3.5569,-3.5581,-3.5579,-3.5579,-3.5516,-3.5509,-3.5588,-3.5588,-3.5588,-3.5588,-3.5588,-3.5588,-3.5534,-3.5558,-3.5551,-3.5576,-3.5574,-3.559,-3.5593,-3.5597,-3.5598,-3.5617,-3.5626,-3.5622,-3.562,-3.563,-3.564,-3.5638,-3.5642,-3.5657,-3.5651,-3.5592,-3.5583,-3.5575,-3.5568,-3.5658,-3.5658,-3.5713,-3.5714,-3.5714]},{"header":{"parameterUnit":"m.s-1","parameterCategory":1,"la1":30.2991,"la2":30.254,"lo1":-89.0895,"lo2":-89.0444,"dy":0.0017,"dx":0.0017,"nx":28,"ny":28,"refTime":"2024-03-25T03:00:00:Z","depth":0,"parameterNumber":3,"parameterNumberName":"V-component_of_WINDS"},"data":[0,0,0,0,0,0,0,0,0,0,0,0,0,0,0,0,0,0,0,0,0,0,0,0,0,0,0,0,0,0,0,0,0,0,0,0,0,0,0,0,0,0,0,0,0,0,0,0,0,0,0,0,0,0,0,0,0,0,3.6938,3.6938,0,3.6973,3.6973,3.6974,3.7012,3.7012,3.7013,3.7013,3.7047,3.7047,3.7048,0,0,0,0,0,0,0,0,0,0,0,0,0,3.6902,3.6902,3.6938,3.6938,3.6939,3.6973,3.6973,3.6974,3.7012,3.7012,3.7013,3.7014,3.7047,3.7047,3.7048,0,0,0,0,0,0,0,0,0,0,0,0,0,3.6925,3.6902,3.6938,3.6962,3.6964,3.6973,3.6973,3.6974,3.7012,3.7012,3.7013,3.7014,3.7047,3.7047,3.7048,3.7034,0,0,3.7049,3.705,0,0,0,0,0,0,0,0,3.6924,3.6926,3.6958,3.696,3.6963,3.6989,3.6973,3.6994,3.7011,3.6994,3.7013,3.7014,3.7027,3.7029,3.7034,3.7036,3.7037,3.7049,3.705,3.705,3.705,0,0,0,0,0,0,0,3.6922,3.6925,3.6952,3.6958,3.6961,3.697,3.6974,3.6977,3.7005,3.6995,3.6998,3.7002,3.7028,3.7033,3.7035,3.7038,3.7049,3.705,3.705,3.705,3.7033,3.7032,0,0,0,0,0,0,3.6917,3.6923,3.6951,3.6953,3.6945,3.697,3.6975,3.698,3.7005,3.701,3.7001,3.7003,3.7032,3.7034,3.7036,3.7023,3.705,3.705,3.7051,3.7034,3.7033,3.7032,0,0,0,0,0,0,3.6916,3.6919,3.6949,3.6939,3.6943,3.697,3.6975,3.698,3.6985,3.701,3.7014,3.7001,3.7032,3.7035,3.7035,3.7025,3.7051,3.7051,3.7035,3.7033,3.7032,3.6997,0,0,0,0,0,0,3.6915,3.6919,3.6914,3.6939,3.6944,3.6948,3.6974,3.698,3.6986,3.6989,3.7011,3.7015,3.7033,3.7034,3.7036,3.7026,3.7052,3.7036,3.7034,3.7033,3.6999,3.6995,3.6991,0,0,0,0,0,3.6914,3.6902,3.6914,3.6917,3.6939,3.6947,3.695,3.6972,3.6985,3.6981,3.6997,3.7014,3.7026,3.7034,3.7036,3.7026,3.7036,3.7034,3.7033,3.7001,3.6996,3.6991,0,0,0,0,0,0,3.6874,3.6906,3.6919,3.6915,3.6928,3.6954,3.6949,3.6966,3.6975,3.6978,3.7004,3.7008,3.7005,3.7016,3.7024,3.7016,3.7034,3.7032,3.7009,3.7004,3.7,3.6998,3.7052,0,0,0,0,0,3.6865,3.687,3.6897,3.6891,3.6897,3.6922,3.6926,3.6942,3.6957,3.6962,3.6978,3.6991,3.6998,3.7001,3.7009,3.7001,3.7007,3.6996,3.6992,3.6988,3.6987,3.6985,3.698,3.7026,3.7026,3.7026,0,0,3.6847,3.6864,3.6866,3.6884,3.6896,3.69,3.6926,3.6929,3.6933,3.6962,3.6964,3.6976,3.6992,3.6989,3.6988,3.6997,3.6975,3.6986,3.6983,3.6983,3.6982,3.6978,3.6974,3.7025,3.7025,3.7025,0,0,3.6815,3.6829,3.6826,3.6838,3.6857,3.6874,3.6873,3.6896,3.6906,3.6908,3.6931,3.6935,3.6945,3.6956,3.6963,3.6937,3.6954,3.6938,3.6917,3.6915,3.6911,3.6908,3.69,3.6896,3.6937,3.6937,3.6937,0,3.6789,3.6797,3.6822,3.6824,3.6832,3.686,3.6858,3.6868,3.6888,3.6892,3.6903,3.6918,3.693,3.693,3.6924,3.6928,3.6929,3.6936,3.691,3.6907,3.6904,3.6897,3.6893,3.6935,3.6935,3.6935,3.6935,0,3.6765,3.677,3.6765,3.6786,3.6792,3.6792,3.6817,3.682,3.6836,3.6851,3.6854,3.687,3.6882,3.6883,3.6897,3.6885,3.6891,3.6905,3.6924,3.6898,3.6891,3.6888,3.6932,3.6933,3.6933,3.6934,0,0,3.6709,3.6744,3.6742,3.6752,3.6775,3.6779,3.678,3.6793,3.6796,3.6809,3.6811,3.682,3.6834,3.6842,3.6858,3.6856,3.6835,3.6871,3.6871,3.6864,3.6824,3.6813,3.6809,3.6846,3.6846,3.6845,3.6822,0,3.6682,3.6687,3.671,3.6708,3.6713,3.6741,3.6742,3.6756,3.6771,3.6777,3.6793,3.68,3.6817,3.6822,3.6821,3.6838,3.6827,3.684,3.6848,3.6848,3.6844,3.6805,3.6794,3.6772,3.682,3.6819,3.6819,0,3.6651,3.6664,3.6662,3.6687,3.669,3.6691,3.6705,3.6711,3.6728,3.6739,3.6748,3.6767,3.6769,3.6786,3.6791,3.6798,3.6803,3.6812,3.6812,3.6813,3.6832,3.6807,3.6765,3.6762,3.6815,3.6815,3.6816,0,3.6612,3.6628,3.663,3.6637,3.6666,3.6666,3.6677,3.6695,3.6702,3.6714,3.6719,3.673,3.6737,3.6745,3.6766,3.6777,3.6768,3.6787,3.6777,3.6777,3.6774,3.6774,3.6733,3.6776,3.6776,3.6777,3.6777,0,3.658,3.6578,3.6613,3.6614,3.6613,3.6639,3.6638,3.6652,3.6668,3.6672,3.6696,3.6699,3.6727,3.6733,3.6749,3.6751,3.6753,3.6762,3.6767,3.676,3.6759,3.6764,3.6766,3.6776,3.6776,3.6776,3.6776,0,3.6535,3.6559,3.6563,3.659,3.6597,3.6595,3.6618,3.662,3.6637,3.6642,3.6644,3.667,3.6679,3.6701,3.6715,3.6726,3.6723,3.6731,3.6718,3.6721,3.671,3.6711,3.6671,3.6668,3.6712,3.6712,3.6711,0,3.6514,3.6514,3.6541,3.6546,3.6557,3.6565,3.6573,3.6598,3.6605,3.6625,3.6624,3.6635,3.6646,3.6658,3.6678,3.6689,3.6698,3.6683,3.6699,3.6694,3.6698,3.6699,3.6699,3.6679,3.6679,3.6678,3.6678,0,3.6473,3.6485,3.6495,3.651,3.6518,3.6531,3.6544,3.6547,3.6576,3.6582,3.6592,3.66,3.6615,3.6626,3.6641,3.6652,3.667,3.6673,3.6671,3.6665,3.6658,3.6662,3.6709,3.6673,3.6674,3.6674,3.6674,3.6675,3.644,3.6442,3.6462,3.6473,3.6486,3.6499,3.6502,3.652,3.6529,3.6545,3.6559,3.6568,3.6585,3.6607,3.6617,3.6624,3.6633,3.663,3.663,3.6629,3.6627,3.6656,3.6626,3.6627,3.6627,3.6627,3.6627,0,3.6402,3.6416,3.6426,3.6445,3.6454,3.6471,3.6487,3.6493,3.6501,3.6516,3.6526,3.6538,3.6549,3.657,3.6582,3.6584,3.6592,3.6586,3.6587,3.6589,3.6617,3.6618,3.6579,3.6579,3.6579,3.6579,3.6579,3.6579,3.6383,3.6387,3.6401,3.6412,3.6427,3.6436,3.6444,3.6456,3.6468,3.6481,3.6491,3.6505,3.6522,3.6536,3.6547,3.6553,3.6556,3.6548,3.6556,3.6582,3.6587,3.6591,3.6592,3.6548,3.6548,3.6528,3.6527,3.6527]}]]